Theta_e
331 330 330 330 331 331 332 333 332 331 331 331 332 332 333 334 335 336 336 336 335 335 334 333 332 331 333 333 334 333 330 329 329 329 330 330 330 325 317 311 312 317 324 330 331 331 332 332 333 333 333 334 334 334 333 333 332 331 331 329 327 325
333 332 332 331 331 332 333 332 332 331 332 334 334 334 334 334 335 335 335 335 334 333 332 330 328 327 327 329 332 333 331 328 328 329 329 329 330 329 322 314 311 314 321 328 331 331 332 332 333 333 333 334 333 333 333 332 332 332 331 329 327 325
334 334 332 331 332 334 334 332 332 333 335 338 338 336 335 335 335 334 335 334 333 332 331 330 331 331 328 326 330 333 332 329 328 328 328 328 329 330 327 319 313 312 317 325 330 331 332 332 332 332 332 333 333 333 333 333 333 332 330 328 326 324
334 334 333 332 333 335 335 332 332 334 337 338 339 338 336 336 336 335 335 334 334 334 334 335 337 337 333 329 327 328 330 330 329 328 327 328 328 329 330 326 319 314 316 323 329 331 332 332 331 330 330 331 332 333 333 333 333 332 330 328 325 323
335 333 333 334 334 334 334 332 332 334 336 337 339 339 337 337 336 335 335 334 334 336 338 338 338 337 337 335 330 326 326 327 328 328 328 327 327 328 329 329 326 319 317 322 329 332 332 331 329 329 330 331 332 332 333 332 332 331 330 328 325 324
336 334 333 334 335 335 334 333 332 333 334 335 336 337 336 336 335 334 334 334 333 335 337 338 338 337 338 338 335 332 330 328 327 327 328 328 327 327 327 329 329 326 323 325 329 331 331 329 329 331 333 334 333 332 332 332 332 331 331 328 325 324
337 336 334 334 335 335 335 333 333 332 332 333 333 334 334 334 334 333 333 334 334 335 337 337 338 338 338 338 338 337 335 332 328 325 325 327 328 328 327 327 329 329 327 328 329 329 328 328 330 333 334 334 333 333 332 332 332 332 331 328 326 324
338 338 335 333 334 334 334 334 333 332 331 332 332 331 331 332 332 332 333 335 335 336 336 336 337 338 338 338 338 338 337 335 332 328 324 324 327 329 328 327 327 329 330 330 330 329 329 330 332 334 334 334 334 334 333 332 332 332 331 329 327 323
338 338 334 331 333 334 333 332 331 331 331 332 332 331 331 331 332 333 335 336 336 336 336 336 336 337 338 338 338 338 337 337 336 333 330 327 327 327 328 327 328 330 332 333 332 332 331 332 333 334 335 335 335 334 333 332 332 331 331 330 328 324
339 338 334 331 334 336 335 333 333 334 334 334 334 335 335 335 335 335 336 336 337 337 337 336 336 337 338 338 338 338 338 338 337 336 335 333 331 329 328 327 328 330 332 332 333 333 334 334 334 335 335 334 334 333 333 332 331 331 331 330 329 324
339 339 338 335 335 336 336 336 336 337 337 336 337 337 337 337 337 337 337 337 337 337 337 337 337 337 337 338 338 338 338 338 338 337 336 335 335 333 331 329 327 328 330 331 331 333 334 334 335 335 335 334 334 333 332 332 331 331 330 331 329 325
339 339 339 338 337 336 336 336 337 337 337 337 338 338 338 338 338 338 337 338 338 337 337 337 337 337 337 338 338 337 338 338 338 338 337 337 336 335 335 333 330 328 329 330 331 331 332 334 334 334 334 334 334 333 332 332 331 331 331 331 330 328
340 340 339 339 338 338 338 337 337 338 338 338 339 339 338 339 338 338 338 338 338 337 337 337 336 337 337 338 337 337 337 337 337 337 337 337 337 336 336 335 334 332 331 330 330 330 331 332 333 333 333 333 333 333 333 332 331 331 330 330 329 328
340 340 340 339 339 339 339 338 337 339 340 339 339 338 338 338 338 338 338 337 337 337 338 337 337 337 337 337 336 336 335 336 336 336 337 337 336 336 336 335 335 334 333 332 332 331 331 331 331 332 332 331 331 332 332 332 332 331 330 330 328 327
340 340 340 339 339 340 339 338 339 340 340 339 338 338 338 338 338 337 337 337 337 337 337 337 337 337 337 337 336 336 335 335 335 335 335 335 335 335 335 336 335 335 334 334 333 333 333 333 333 332 331 331 332 332 332 332 332 332 330 330 329 327
340 339 339 339 340 340 339 339 339 339 339 339 338 338 338 338 338 337 337 337 336 336 337 337 337 337 338 337 337 337 336 336 335 335 334 334 334 334 335 335 335 335 335 334 334 334 334 334 333 333 332 331 332 333 332 332 332 331 330 330 330 328
340 340 340 340 340 339 339 338 338 339 339 339 338 338 338 338 338 337 337 337 336 336 336 337 337 337 337 337 336 336 336 336 336 335 335 334 334 334 334 334 334 334 334 334 333 334 334 334 333 333 333 332 332 333 333 332 331 331 330 330 329 328
340 340 340 340 340 340 339 339 339 339 339 338 337 337 337 338 338 337 337 336 336 336 336 336 337 337 337 336 336 336 337 337 336 336 336 336 335 334 334 334 334 334 334 334 334 334 334 334 334 334 333 333 332 332 332 332 331 331 330 330 330 329
338 338 339 339 340 340 339 339 338 338 338 337 337 337 337 337 337 336 335 335 335 335 334 335 336 337 337 336 336 337 337 337 337 337 337 337 336 336 335 334 334 335 335 335 335 334 335 334 334 334 334 333 333 332 332 332 331 331 331 331 331 330
337 337 337 338 338 338 338 338 337 338 338 337 337 337 337 336 336 335 335 335 334 334 334 334 335 335 336 336 336 336 337 337 337 337 337 337 337 336 336 335 335 335 335 335 334 334 334 334 334 334 334 333 333 333 332 332 332 331 331 331 331 330
337 337 337 337 338 337 337 338 338 338 338 338 338 337 336 336 336 335 335 335 334 334 334 334 335 336 336 336 336 336 336 336 337 337 336 336 336 336 335 335 336 335 335 334 334 333 333 333 333 333 332 332 332 332 332 332 332 331 331 331 331 330
335 336 336 336 337 337 337 337 338 338 338 338 337 336 336 335 335 334 334 334 334 334 334 334 335 335 335 335 336 336 337 337 337 336 336 335 335 335 334 334 335 335 334 335 334 334 333 333 333 332 331 331 331 331 331 331 331 331 331 331 331 330
332 333 334 334 335 336 336 336 337 337 337 336 335 335 335 334 334 334 334 334 333 334 334 335 335 334 334 334 334 335 336 336 337 337 336 335 335 335 334 334 334 334 334 334 333 333 334 334 333 332 330 330 331 332 331 330 329 330 330 330 330 330
330 330 331 332 333 334 335 336 336 336 336 335 334 334 334 333 333 333 333 333 333 333 333 334 334 334 334 334 334 335 335 335 335 336 336 335 335 335 334 334 334 333 333 333 333 333 334 334 334 334 331 330 330 331 333 331 328 329 330 330 330 329
329 329 329 330 331 333 334 335 335 335 335 334 333 333 332 332 332 332 332 332 332 332 332 333 333 333 333 333 334 334 334 334 334 334 334 333 334 333 333 333 333 332 332 332 333 333 333 333 334 334 333 332 331 332 334 331 329 330 330 329 330 329
328 328 328 328 329 331 332 333 333 333 332 331 330 330 329 328 329 329 330 331 331 331 331 332 332 332 332 333 333 333 333 334 334 334 333 333 333 333 333 333 332 332 331 332 332 332 331 332 332 332 332 332 332 333 333 329 329 331 330 329 330 330
325 325 326 327 327 329 329 330 330 330 329 328 328 327 327 327 327 327 328 329 330 330 330 330 331 331 332 332 332 332 333 333 333 334 334 333 333 333 333 333 332 332 331 331 331 331 331 331 331 330 331 331 331 332 332 329 329 331 331 330 329 329
322 323 324 324 325 327 328 328 328 328 328 327 327 326 326 327 327 327 328 328 328 329 328 329 329 329 330 330 331 331 331 332 332 333 333 333 333 333 333 333 332 332 332 332 332 331 331 331 330 330 330 331 331 331 331 330 329 329 330 331 330 330
320 321 322 322 323 324 325 325 326 326 326 325 325 324 324 325 326 327 327 327 328 328 327 327 327 328 328 329 329 330 330 330 331 332 332 333 332 332 332 332 332 332 333 332 332 332 332 331 331 330 330 329 330 330 330 330 329 328 328 329 331 330
318 319 320 320 321 322 323 323 323 323 323 323 323 322 323 323 324 325 325 326 326 326 325 325 326 326 326 327 328 328 329 329 329 330 330 330 330 331 331 331 331 332 332 332 332 332 332 331 330 330 330 329 329 329 329 329 329 329 328 328 329 329
317 317 318 318 319 320 320 321 321 321 321 320 320 320 321 321 321 322 322 323 323 323 323 324 325 325 325 325 326 327 327 328 328 328 328 328 328 328 329 329 328 329 330 330 331 332 331 331 330 330 329 329 329 329 329 329 329 329 328 328 329 328
316 316 316 316 316 317 318 319 320 319 319 318 318 318 318 318 318 318 319 320 320 321 322 322 323 323 323 323 324 325 326 326 326 326 326 326 326 326 326 326 326 326 327 328 330 331 331 330 329 329 329 329 329 329 329 329 329 329 329 329 329 328
316 315 314 314 315 316 317 317 317 317 317 316 316 316 316 316 315 315 315 317 318 318 319 320 321 320 320 321 322 322 322 322 322 322 323 324 324 324 324 324 324 324 324 325 327 328 329 329 328 327 328 328 328 329 329 329 329 328 329 328 328 329
315 314 314 313 313 314 314 315 315 315 315 315 314 314 315 314 313 313 313 314 315 315 316 317 318 317 317 317 318 318 318 319 319 319 320 321 322 322 322 323 324 324 324 324 324 325 326 327 327 328 328 328 328 329 329 329 329 328 328 328 328 328
315 314 314 313 313 313 313 313 313 313 313 313 313 312 312 312 311 311 312 313 313 313 314 314 315 315 315 314 314 315 316 316 317 318 318 319 319 319 320 321 322 323 324 325 325 325 326 326 326 327 327 327 328 329 329 329 329 329 329 328 328 328
315 314 314 313 313 313 312 312 312 312 312 311 310 310 309 309 309 309 310 311 311 311 312 312 312 313 313 313 312 312 313 313 315 315 316 317 317 317 317 318 320 321 323 324 325 325 326 326 326 327 326 327 327 328 328 328 329 329 329 329 328 328
315 314 314 314 313 312 311 310 310 311 311 310 309 308 307 307 307 307 308 308 309 309 310 310 310 311 312 311 310 310 310 311 312 313 314 315 314 315 316 317 318 320 320 321 322 324 325 326 327 327 327 328 328 327 328 328 328 328 328 329 329 328
Wind_Speed
12 11 12 12 12 13 12 12 13 12 12 10 9 8 9 9 9 8 6 6 5 4 3 2 2 2 2 2 1 1 2 1 0 2 4 5 6 7 7 6 7 12 15 15 13 11 9 8 7 7 6 4 4 7 7 6 5 3 3 3 3 5
12 11 11 12 12 12 11 11 12 12 12 10 8 7 8 9 8 7 6 5 4 3 2 1 0 0 1 1 1 2 3 3 1 1 2 4 5 6 6 5 4 8 13 15 13 11 9 7 5 6 6 4 1 5 7 7 5 4 3 3 3 4
12 11 11 12 13 12 11 11 12 12 11 10 8 7 8 8 7 6 6 4 3 2 1 1 2 2 0 1 1 2 3 4 3 2 1 2 3 4 5 4 3 5 11 14 13 11 9 6 4 4 5 4 1 4 7 7 6 5 4 3 3 4
12 11 11 12 13 12 11 11 12 12 10 10 9 8 8 7 6 6 6 4 3 2 1 1 1 2 2 1 1 2 3 4 5 5 3 2 1 2 3 3 3 2 8 12 12 10 9 5 2 3 4 5 2 2 5 6 6 6 5 4 3 4
11 11 11 12 12 11 11 12 12 11 10 9 8 8 7 6 6 5 5 4 3 3 2 2 1 2 3 2 1 1 3 4 6 7 6 4 2 1 1 2 2 1 5 10 11 9 8 5 1 3 6 6 3 1 4 6 7 7 7 5 4 5
11 11 11 11 11 10 10 10 11 11 10 9 8 7 7 6 5 5 5 4 4 4 4 4 4 4 3 3 3 3 3 4 5 7 8 7 5 3 2 0 1 1 3 8 10 8 7 5 1 5 8 9 7 4 6 8 9 9 8 6 6 6
11 10 10 10 10 10 9 9 9 9 9 9 8 8 7 6 6 6 5 5 5 6 6 6 7 6 5 5 4 4 4 6 6 6 8 9 8 6 4 3 1 1 3 5 8 7 7 5 4 8 11 13 13 9 9 11 11 11 10 8 7 7
10 9 8 9 10 9 9 9 9 8 8 8 8 7 7 7 7 7 7 7 7 8 9 9 8 8 8 7 6 6 5 6 7 7 7 8 10 9 7 6 4 3 3 4 6 7 8 8 8 10 12 14 15 13 11 13 14 13 11 9 8 8
9 8 7 9 10 9 8 8 8 7 6 6 6 6 6 7 7 8 8 9 10 10 11 11 10 9 9 9 9 8 7 6 7 7 8 7 7 9 9 9 8 7 6 5 6 7 9 10 10 11 12 14 16 15 12 13 15 16 14 12 9 9
9 8 7 8 8 8 7 7 6 5 5 5 5 5 6 7 8 9 9 10 11 12 12 12 12 10 10 10 10 10 10 9 8 8 9 9 8 8 9 10 10 10 9 9 9 10 11 12 12 12 12 14 16 15 14 14 16 18 16 14 12 10
10 9 8 7 8 8 7 7 6 5 6 6 6 7 8 9 9 9 9 10 11 11 11 12 13 12 11 11 10 11 11 11 10 9 9 10 10 10 10 10 11 12 12 13 13 12 13 13 14 13 12 14 16 16 15 15 16 19 19 16 14 11
11 11 10 9 8 8 8 8 8 7 7 8 9 9 9 9 10 10 10 10 10 10 10 11 12 12 12 11 11 11 12 12 12 11 10 10 11 12 13 12 12 13 14 15 15 15 14 15 16 16 15 16 17 17 16 15 16 20 21 19 17 14
11 10 10 10 10 9 9 9 8 8 8 9 10 10 9 9 9 9 8 8 9 10 11 11 10 10 10 11 11 11 11 12 12 12 12 11 11 12 13 14 14 15 16 16 18 18 17 18 18 19 19 19 19 18 18 16 16 19 22 21 19 16
9 9 9 9 9 9 9 9 8 7 7 8 9 8 8 8 8 8 8 8 9 10 11 10 9 10 10 11 11 10 11 11 11 12 12 13 13 13 13 14 15 15 16 17 19 20 20 21 21 22 22 21 20 20 19 18 16 18 22 22 19 18
9 8 8 8 8 8 8 8 7 6 7 8 8 7 7 7 7 8 9 9 10 11 11 11 10 10 10 10 9 9 9 9 10 10 11 12 13 14 14 14 15 15 16 17 19 20 21 23 23 23 23 21 19 18 17 18 17 17 21 22 21 20
8 7 7 7 7 8 8 7 6 6 6 7 8 7 7 8 8 9 9 10 11 11 12 12 11 10 9 8 9 9 8 8 9 9 10 11 12 14 15 15 16 16 17 17 18 19 20 21 22 23 23 21 18 17 16 17 17 17 19 21 22 21
8 7 7 7 7 8 7 7 7 6 6 7 7 8 8 9 9 9 10 10 10 11 12 12 11 9 8 8 9 9 9 9 9 10 10 10 12 13 14 15 15 15 17 17 17 18 18 18 19 21 21 21 20 18 16 14 16 17 19 22 24 23
7 7 7 7 7 7 8 7 7 7 7 8 7 8 8 9 10 11 12 10 9 10 11 11 10 9 9 10 11 11 10 10 11 11 11 12 13 13 13 14 15 15 15 16 18 17 17 17 18 19 19 20 20 18 15 13 16 18 20 22 25 25
3 4 4 5 6 6 6 7 6 6 7 8 8 8 8 9 10 10 10 8 7 7 8 8 9 9 10 12 12 11 11 12 13 12 12 14 14 14 14 14 15 16 16 16 17 17 18 18 18 19 20 20 20 20 19 17 16 19 20 21 23 23
2 1 1 1 2 3 4 4 5 5 6 7 7 7 8 9 8 8 8 7 6 7 6 6 7 9 10 11 11 11 12 14 15 14 14 15 15 16 16 16 17 16 17 17 17 18 17 18 19 20 21 21 21 20 21 21 19 18 20 21 21 22
7 4 3 3 2 2 4 5 5 6 7 7 8 8 8 9 8 9 8 6 7 7 6 5 5 7 8 9 10 12 14 15 16 16 16 17 17 17 17 17 17 17 18 18 19 18 16 16 16 16 17 18 19 19 20 21 21 20 21 22 22 23
11 8 7 6 5 5 5 6 7 7 7 8 9 10 10 10 10 9 9 7 8 8 5 4 3 4 6 8 10 12 14 15 16 16 16 17 17 17 17 17 17 19 19 18 19 19 17 13 10 11 11 10 13 15 17 19 22 23 23 23 24 26
13 12 10 9 8 7 7 7 7 6 7 8 10 12 12 13 13 12 12 11 11 10 8 6 5 4 5 6 8 10 12 13 14 15 15 15 15 16 16 16 17 18 18 18 19 20 19 15 13 12 8 4 5 6 8 12 19 24 25 25 26 28
13 13 12 11 10 8 6 6 7 6 7 8 9 10 11 13 15 14 14 14 14 13 12 10 8 7 7 7 7 9 10 11 12 12 13 15 16 17 17 17 17 16 17 18 18 19 19 18 18 15 6 2 2 2 3 6 12 19 23 25 27 29
11 11 11 11 10 8 6 6 6 6 8 9 10 12 13 15 16 15 16 16 16 16 15 13 12 11 10 10 10 10 11 11 11 12 13 15 17 18 18 18 18 17 17 18 18 19 19 19 19 18 13 7 3 2 3 2 5 10 16 23 27 30
10 10 11 11 10 9 8 8 8 9 11 12 13 14 15 16 16 16 16 15 15 16 16 14 14 13 12 12 11 12 12 12 13 13 14 16 16 17 18 18 18 18 18 19 20 20 20 20 20 20 21 19 15 13 9 3 1 4 8 18 23 27
11 10 10 10 9 8 9 9 10 11 12 13 14 14 13 13 14 14 14 14 14 14 15 14 14 13 13 13 12 12 13 13 13 14 14 14 15 16 17 18 18 18 19 19 20 19 21 22 20 19 22 24 25 26 24 14 7 5 4 8 16 22
12 12 11 10 8 8 8 8 9 9 10 12 13 13 12 12 12 13 13 13 14 13 14 14 14 14 13 13 13 12 12 12 12 13 13 14 15 16 17 18 18 19 20 19 20 21 22 21 19 19 20 22 24 27 29 25 20 14 6 4 7 13
13 13 11 10 9 8 8 8 8 8 8 9 10 10 11 12 13 14 15 15 15 14 15 14 14 14 14 13 13 13 13 13 14 13 13 14 16 17 18 19 19 19 20 20 20 21 23 22 21 22 22 21 22 22 24 26 26 21 12 7 6 4
14 13 11 10 9 8 8 8 9 9 8 9 9 9 11 12 13 15 16 16 16 16 17 16 15 15 15 14 13 14 14 14 14 14 14 15 16 17 18 19 20 20 21 22 22 22 23 24 24 26 25 23 22 20 17 16 18 19 14 11 9 6
16 14 12 10 8 8 8 8 9 9 10 10 10 10 11 13 13 14 14 15 15 16 17 17 16 16 16 15 14 14 14 14 14 15 15 16 16 17 18 19 20 20 21 22 23 24 25 25 25 26 27 26 26 23 19 15 15 17 13 9 8 6
15 13 13 11 9 8 9 9 10 11 11 11 11 12 13 13 13 13 12 12 12 13 14 15 15 17 18 17 16 15 16 16 16 16 17 18 18 18 18 19 20 20 21 22 24 25 26 25 24 25 26 27 27 27 26 24 23 22 18 16 13 6
12 12 13 14 12 11 11 12 12 13 13 13 12 12 13 13 12 12 11 10 10 11 11 12 14 17 18 17 17 17 17 18 18 18 18 19 19 20 20 20 20 21 21 22 23 25 26 26 26 27 28 28 29 30 30 29 28 27 24 23 17 9
12 11 13 16 16 16 15 14 14 14 14 13 13 13 12 12 12 11 12 11 11 11 12 13 14 15 15 15 16 17 17 18 18 19 19 19 19 19 19 19 19 21 22 22 23 24 26 27 29 29 28 29 30 30 30 29 29 29 27 23 18 13
12 11 13 15 17 18 17 16 15 14 15 14 14 13 12 12 11 12 13 12 12 12 12 13 12 12 13 13 15 18 18 18 18 19 19 19 19 19 18 18 17 18 20 21 23 24 25 26 27 28 28 29 31 31 30 29 29 29 27 24 23 23
12 11 12 13 14 16 17 17 16 16 17 17 16 16 15 15 15 14 14 13 13 13 12 12 12 12 12 12 15 19 18 18 18 18 18 19 20 20 21 20 20 20 19 20 21 23 25 27 27 28 28 29 31 32 31 30 31 30 29 27 27 28
11 10 11 13 14 16 17 18 18 17 18 18 19 19 19 19 19 18 18 17 16 15 14 14 13 13 12 12 17 20 19 19 19 19 19 19 20 21 22 22 22 22 22 21 22 22 24 25 27 28 28 29 30 31 30 30 30 30 29 29 29 29
Wind_Direction
162 160 161 162 163 166 167 171 170 169 170 168 168 168 172 172 175 180 182 185 193 202 207 215 223 220 213 241 268 169 207 224 349 26 46 56 60 64 74 96 143 170 177 174 169 156 134 119 109 93 73 80 160 187 196 203 203 190 174 163 166 170
166 164 164 163 159 157 163 169 166 165 162 150 143 150 159 168 177 179 184 194 200 215 238 235 242 180 205 235 235 189 206 220 244 332 23 44 53 56 63 76 121 167 181 181 176 162 144 133 120 102 76 64 138 194 204 214 215 216 203 188 180 180
169 168 170 166 160 157 163 169 167 167 161 150 150 161 159 165 178 176 185 195 186 186 199 125 69 44 42 159 208 214 211 222 235 254 296 17 50 53 56 58 77 161 182 185 182 169 153 142 119 95 68 61 97 194 205 216 221 229 230 213 199 194
173 174 176 171 167 167 170 174 175 171 168 161 165 177 172 174 182 184 195 199 185 180 180 162 74 360 345 52 192 223 228 236 241 246 256 276 19 54 56 53 40 136 184 186 184 176 163 150 107 59 36 43 53 189 206 220 228 236 239 227 212 200
175 179 180 177 171 173 175 177 181 179 178 174 176 183 183 186 193 202 213 220 224 233 245 253 278 311 329 332 311 255 248 251 249 252 253 262 275 309 39 62 43 53 184 186 183 179 171 162 101 1 355 4 6 268 230 236 238 240 241 232 214 203
176 183 185 183 174 174 179 180 184 187 189 188 189 195 199 203 211 221 232 245 252 268 274 280 294 301 306 302 314 318 294 277 258 253 252 255 261 264 293 360 110 107 175 184 181 183 182 181 283 328 329 332 329 290 253 249 246 244 240 233 217 205
180 185 187 187 178 176 186 189 189 193 196 200 203 209 217 223 231 239 250 263 272 283 285 291 299 302 295 283 288 297 300 303 293 271 256 251 253 256 265 271 242 193 180 186 190 197 206 221 278 307 312 315 314 297 267 255 250 246 240 236 223 209
187 189 189 185 180 181 190 197 199 200 201 208 215 218 229 237 242 250 263 274 280 285 290 296 296 298 294 287 283 275 275 295 306 304 284 262 252 253 259 264 262 253 240 220 216 220 231 251 276 293 301 307 309 303 280 261 251 246 242 240 229 211
194 193 192 185 181 183 190 201 206 207 212 223 227 230 238 244 250 258 269 281 287 288 291 293 292 292 291 290 289 283 277 278 290 301 304 293 265 255 259 266 269 269 280 282 265 253 254 262 274 286 295 304 309 306 292 272 254 246 244 242 236 216
203 203 197 189 188 193 200 209 213 214 227 241 250 259 260 259 264 269 277 284 291 293 290 286 284 286 285 286 285 283 283 281 282 288 296 301 293 278 269 272 276 276 286 297 297 288 280 278 279 287 296 304 305 301 297 285 261 248 245 242 238 221
209 212 210 204 205 215 227 231 234 237 241 254 270 279 279 275 272 276 283 283 287 293 290 282 278 277 277 279 279 280 281 282 285 287 288 290 292 293 288 282 280 280 284 289 295 296 293 290 286 286 291 297 296 293 293 290 267 249 245 242 238 227
213 217 220 223 226 232 243 248 250 253 259 269 278 283 285 283 279 280 284 281 281 285 287 285 279 274 274 280 285 286 284 285 289 292 290 285 283 286 288 286 281 279 279 281 285 286 286 287 285 285 287 287 287 284 283 287 270 249 245 243 237 230
219 222 225 230 239 243 250 253 252 257 267 274 277 279 279 280 283 284 285 286 283 283 285 287 285 281 283 290 294 294 294 294 297 296 295 292 284 280 279 279 276 275 276 278 280 281 282 282 281 282 284 286 286 280 271 272 268 249 241 240 236 230
222 226 230 234 243 247 251 251 251 260 270 278 282 279 275 278 287 291 290 293 294 292 288 288 291 290 291 295 297 302 307 308 307 304 302 298 292 284 277 273 272 272 272 275 277 279 281 282 281 281 282 285 285 281 269 261 263 250 236 236 236 230
220 226 232 235 241 241 246 250 256 267 276 287 292 290 292 299 303 305 302 299 299 297 292 290 289 290 291 295 300 308 315 318 313 307 301 296 291 288 284 278 275 275 276 277 279 280 283 284 285 284 285 285 283 282 275 260 258 252 238 235 234 229
219 221 223 227 235 237 242 252 267 277 284 295 300 302 308 309 307 309 308 303 298 293 288 287 286 289 297 304 313 317 318 319 313 305 297 291 290 290 292 289 283 282 283 284 286 287 287 287 287 286 287 288 286 286 284 268 256 250 241 237 233 229
224 225 227 229 232 237 245 258 274 281 287 296 298 300 304 304 304 305 306 303 297 288 282 284 286 290 303 312 318 319 317 315 306 298 295 296 298 298 296 293 288 285 286 288 289 289 290 290 289 288 285 285 288 290 289 274 259 254 249 243 238 234
231 241 241 237 235 242 254 262 273 282 288 297 301 302 305 305 306 307 307 303 296 292 285 284 286 290 304 311 311 312 311 306 299 296 301 306 307 302 296 292 290 290 292 291 290 289 290 292 291 289 285 281 282 284 282 274 259 249 246 246 243 237
228 256 249 241 242 250 262 265 275 292 299 311 317 316 318 316 315 316 316 313 308 309 301 290 284 289 300 306 308 308 302 297 297 301 303 304 303 300 297 295 295 297 299 295 292 291 289 290 289 287 284 279 277 275 271 269 259 242 237 243 244 239
123 120 88 233 260 277 292 295 305 317 321 327 329 328 331 332 334 338 336 333 334 332 323 307 295 298 301 302 305 303 297 295 299 300 297 297 298 299 299 298 297 297 297 295 292 291 291 290 288 284 282 280 278 274 267 265 260 247 241 240 239 238
91 98 83 62 27 1 343 336 342 350 348 349 354 349 345 347 351 354 350 350 355 348 334 323 315 315 313 308 306 300 295 296 298 297 295 295 295 295 297 296 294 292 292 292 291 292 295 292 285 284 287 285 281 275 266 260 256 250 244 241 238 236
81 83 73 59 47 32 12 355 351 357 359 7 17 14 13 15 16 17 19 23 21 16 12 7 343 327 326 319 310 299 296 296 296 296 293 292 293 296 297 293 290 291 291 289 289 293 295 288 276 279 287 291 291 283 268 254 251 251 245 243 241 237
74 73 66 58 51 36 18 0 353 2 17 33 36 32 35 34 32 35 38 36 31 29 29 23 13 1 352 336 318 306 301 298 297 297 297 297 301 304 302 297 293 293 291 287 288 291 290 284 277 281 284 280 288 294 272 245 243 250 247 242 239 235
67 62 57 53 50 41 23 13 14 23 32 39 34 26 31 34 34 37 41 41 37 35 34 28 26 26 19 3 342 326 317 312 307 305 305 305 305 305 305 302 300 297 291 285 284 287 287 282 277 276 270 250 263 260 268 236 232 247 246 238 234 231
59 54 49 44 41 35 19 13 11 6 8 15 15 13 16 24 31 36 40 43 42 42 44 42 40 38 30 20 5 347 335 328 323 317 313 311 308 308 307 304 300 297 291 283 279 281 285 283 277 271 257 246 262 257 269 254 235 252 242 232 231 230
54 46 42 36 31 30 27 25 22 18 19 23 26 26 25 25 27 32 35 39 41 42 42 43 44 42 34 26 17 5 357 347 337 330 322 317 315 314 310 307 304 298 292 286 282 280 282 284 280 276 265 257 258 257 264 281 289 282 243 231 231 230
55 46 39 33 27 30 37 41 41 40 38 38 34 29 26 23 21 24 28 30 33 33 32 32 35 38 35 29 25 17 9 1 350 342 333 325 324 324 320 317 313 304 299 294 287 280 279 282 279 276 272 266 263 261 262 263 257 274 274 238 230 227
51 47 38 33 31 35 44 48 50 46 40 39 35 24 16 9 6 7 12 16 20 23 25 24 24 26 27 25 23 19 13 8 358 346 336 329 327 328 326 322 319 312 306 300 293 285 280 279 274 274 276 270 265 263 262 260 255 254 265 271 237 223
44 41 33 30 31 41 53 59 62 58 49 43 35 22 10 1 355 353 354 357 359 3 10 14 15 16 16 16 17 16 13 10 5 355 344 336 332 330 327 324 322 315 308 301 296 289 281 277 275 276 279 272 267 264 260 258 255 249 244 254 254 222
44 39 34 33 34 41 50 57 65 67 59 49 36 21 9 1 354 348 344 344 344 346 353 359 2 6 8 8 8 9 9 6 3 359 352 345 338 334 331 327 325 318 309 301 293 288 282 282 282 280 277 272 269 266 258 255 251 244 239 241 246 244
49 40 34 34 40 50 55 60 67 69 62 52 41 29 19 11 3 354 346 340 339 341 347 350 351 355 360 1 358 359 360 355 350 347 344 341 336 333 329 323 320 317 310 303 296 289 283 282 282 279 276 271 267 265 260 253 249 243 236 233 238 245
55 47 41 38 44 59 68 71 72 70 65 57 47 39 33 28 19 10 360 347 339 339 341 343 348 353 355 355 352 349 349 348 346 343 337 333 329 325 322 315 311 310 308 305 299 292 284 281 283 282 279 274 271 270 265 259 257 251 243 240 238 238
68 60 53 50 53 62 69 71 72 71 65 59 52 46 41 37 30 23 21 15 7 2 358 358 4 5 359 358 359 356 355 355 354 349 342 335 331 327 324 318 312 309 307 304 300 294 289 287 288 285 282 280 277 274 269 264 262 257 251 245 240 240
82 71 65 63 63 64 65 66 67 66 62 58 54 50 47 40 33 29 33 37 32 26 23 20 19 16 10 11 14 11 6 2 359 355 349 344 340 336 330 324 317 313 311 309 305 299 293 291 289 286 283 282 280 274 272 269 264 259 253 245 238 239
90 81 74 71 68 65 65 66 66 65 63 61 58 56 53 46 38 36 37 42 40 35 31 28 25 25 24 20 18 17 14 9 5 360 355 352 350 346 341 336 329 321 315 314 311 305 299 295 292 289 287 286 284 278 276 274 269 263 256 248 241 238
96 88 78 72 67 63 65 67 66 67 64 60 58 55 53 49 47 46 44 44 44 40 37 35 31 33 35 21 13 16 16 14 13 7 0 357 355 353 351 349 343 334 325 320 315 309 306 302 297 294 291 289 286 282 281 279 274 268 261 254 247 240
100 88 78 74 73 69 68 68 67 67 63 59 57 54 51 49 48 50 50 48 46 45 42 38 34 37 38 21 12 15 16 16 17 12 6 3 360 358 355 352 347 341 337 331 321 311 307 306 305 301 295 289 284 281 284 284 277 270 263 255 250 245